Location: Harmony
(28.2000°N, 81.1500°W)
Time: 19:01:54
(UTC-04:00)

CZ-4 R/B - Pass Details

Date: 18 December 2017
Orbit: 534 x 598 km, 97.8° (Epoch: 21 April)

Event Time Altitude Azimuth Distance (km) Brightness Sun altitude
Rises 18:14:59 0° 168° (SSE) 2,669 5.0 -9.5°
Reaches altitude 10° 18:17:04 10° 168° (SSE) 1,786 4.1 -9.9°
Maximum altitude 18:20:55 87° 256° (WSW) 546 1.3 -10.7°
Drops below altitude 10° 18:24:51 10° 348° (NNW) 1,822 3.9 -11.5°
Sets 18:27:00 0° 348° (NNW) 2,729 4.8 -11.9°
